Weather Roundup
Issued by NWS Chicago, IL

Home | Current Version | Previous Version | Graphics & Text | Print | Product List | Glossary On
Versions: 1 2 3 4 5 6 7 8 9 10 11 12 13 14 15 16 17 18 19 20 21 22 23 24 25 26 27 28 29 30 31 32 33 34 35 36 37 38 39 40 41 42 43 44 45 46 47 48 49 50
000
NZUS59 KLOT 070902
HRRLOT

CHICAGO AREA WEATHER ROUNDUP
NATIONAL WEATHER SERVICE CHICAGO/ROMEOVILLE IL
400 AM CDT THU MAY 07 2015

NOTE: "FAIR" INDICATES FEW OR NO CLOUDS BELOW 12,000 FEET WITH NO
SIGNIFICANT WEATHER AND/OR OBSTRUCTIONS TO VISIBILITY.

* THESE STATIONS ARE NOT UNDER NWS QUALITY CONTROL. THEY ALSO MAY NOT
  REPORT WEATHER SUCH AS PRECIPITATION OR FOG.

ILZ005-006-012>014-019>023-071000-
NORTHEAST ILLINOIS

CITY           SKY/WX    TMP DP  RH WIND       PRES   REMARKS
OHARE          PTCLDY    54  49  83 E6        30.05S
MIDWAY           N/A     59  52  77 CALM      30.05S
AURORA         CLEAR     59  53  80 SE5       30.04S
WAUKEGAN       PTCLDY    45  44  97 CALM      30.05S
DUPAGE AIRPORT CLEAR     58  53  84 CALM      30.04S
WHEELING       PTCLDY    50  47  89 CALM      30.06F
NORTHERLY IS     N/A     51  48  89 CALM        N/A
$$

WIZ051-052-058>065-066-070>072-071000-
SOUTHEAST WISCONSIN

CITY           SKY/WX    TMP DP  RH WIND       PRES   REMARKS
MILWAUKEE      PTCLDY    46  43  89 CALM      30.06S
KENOSHA*       PTCLDY    46  45  96 E3        30.05S FOG
RACINE*        PTCLDY    45  43  93 CALM      30.07S
$$

INZ001>003-010>013-019-020-071000-
NORTHWEST INDIANA

CITY           SKY/WX    TMP DP  RH WIND       PRES   REMARKS
GARY*          NOT AVBL
MICHIGAN CITY* NOT AVBL
RENSSELAER*    NOT AVBL
$$

LMZ740>746-071000-
SOUTHERN LAKE MICHIGAN

STATION/POSITION TIME  SKY/WX   TEMP WIND        PRES    VSBY
                                AIR  DIR/SP/G
                 (UTC)          (F)  (DEG/KT/KT) (MB)    (MI)
HARRISON CRIB    0800            56  180/  6/  6   N/A
BURNHAM HARBOR   0900            51   CALM  /  1   N/A
CALUMET HARBOR   0812            52   CALM  /  2   N/A
BURNS HARBOR     0800            69  130/  9/ 14 1018.6F
MICHIGAN CITY    0800            67  120/ 10/ 13   N/A
$$

ABBREVIATIONS USED IN REMARKS
   TC - TEMPERATURE IN CELSIUS
  WCI - WIND CHILL INDEX
   HX - HEAT INDEX
  VSB - VISIBILITY
$$



USA.gov is the U.S. government's official web portal to all federal, state and local government web resources and services.